Newport Airport, OR

6:18 AM PDT on June 22, 2017 (GMT -0700)
Newport Municipal

Weather History for KONP - July, 2014

Change the Weather History Date:

Monday, July 21, 2014

  Actual Average Record
Temperature  
Mean Temperature 58 °F -  
Max Temperature 66 °F 62 °F 69 °F (2004)
Min Temperature 50 °F 52 °F 44 °F (2005)
Degree Days  
Heating Degree Days 7    
Growing Degree Days 8 (Base 50)    
Moisture  
Dew Point 52 °F    
Average Humidity 82    
Maximum Humidity 100    
Minimum Humidity 60    
Precipitation  
Precipitation 0.00 in - - ()
Sea Level Pressure  
Sea Level Pressure 30.05 in    
Wind  
Wind Speed 4 mph (NNW)    
Max Wind Speed 14 mph    
Max Gust Speed 17 mph    
Visibility 8 miles    
Events      
Averages and records for this station are not official NWS values.
T = Trace of Precipitation, MM = Missing Value Source: NWS Daily Summary

Daily Weather History Graph

Daily Weather History Graph

Search for Another Location

Airport or City:

Trip Planner

Search our weather history database for the weather conditions in past years. The results will help you decide how hot, cold, wet, or windy it might be!

Date:

Astronomy

Jul. 21, 2014 Rise Set
Actual Time 5:51 AM PDT 8:53 PM PDT
Civil Twilight 5:16 AM PDT 9:28 PM PDT
Nautical Twilight 4:31 AM PDT 10:12 PM PDT
Astronomical Twilight 3:38 AM PDT 11:05 PM PDT
Moon 1:48 AM PDT (7/21) 4:39 PM PDT (7/21)
Length of Visible Light 16h 11m
Length of Day
15h 02m
Waning Crescent, 23% of the Moon is Illuminated
Jul 21
Waning Crescent
Jul 26
New
Aug 3
First Quarter
Aug 10
Full
Aug 17
Last Quarter

Hourly Weather History & Observations

Time (PDT) Temp. Dew Point Humidity Pressure Visibility Wind Dir Wind Speed Gust Speed Precip Events Conditions
12:15 AM 53.6 °F 50.0 °F 88% 30.04 in 3.0 mi North 3.5 mph - N/A   Clear
12:35 AM 51.8 °F 50.0 °F 94% 30.04 in 3.0 mi Calm Calm - N/A   Clear
12:55 AM 51.8 °F 50.0 °F 94% 30.04 in 4.0 mi Calm Calm - N/A   Clear
1:15 AM 51.8 °F 50.0 °F 94% 30.03 in 5.0 mi Calm Calm - N/A   Clear
1:35 AM 50.0 °F 48.2 °F 94% 30.04 in 7.0 mi Calm Calm - N/A   Scattered Clouds
1:55 AM 50.0 °F 48.2 °F 94% 30.03 in 10.0 mi Calm Calm - N/A   Mostly Cloudy
2:15 AM 50.0 °F 50.0 °F 100% 30.04 in 10.0 mi Calm Calm - N/A   Overcast
2:35 AM 51.8 °F 50.0 °F 94% 30.03 in 10.0 mi Calm Calm - N/A   Overcast
2:55 AM 51.8 °F 50.0 °F 94% 30.03 in 10.0 mi Calm Calm - N/A   Mostly Cloudy
3:15 AM 51.8 °F 50.0 °F 94% 30.03 in 10.0 mi Calm Calm - N/A   Scattered Clouds
3:35 AM 51.8 °F 50.0 °F 94% 30.03 in 10.0 mi Calm Calm - N/A   Clear
3:55 AM 51.8 °F 50.0 °F 94% 30.03 in 10.0 mi Calm Calm - N/A   Clear
4:15 AM 51.8 °F 50.0 °F 94% 30.03 in 10.0 mi Calm Calm - N/A   Clear
4:35 AM 50.0 °F 50.0 °F 100% 30.03 in 10.0 mi Calm Calm - N/A   Clear
4:55 AM 50.0 °F 50.0 °F 100% 30.04 in 10.0 mi East 5.8 mph - N/A   Clear
5:15 AM 51.8 °F 50.0 °F 94% 30.03 in 10.0 mi ENE 4.6 mph - N/A   Clear
5:35 AM 50.0 °F 48.2 °F 94% 30.04 in 10.0 mi ENE 3.5 mph - N/A   Clear
5:55 AM 51.8 °F 50.0 °F 94% 30.04 in 5.0 mi East 4.6 mph - N/A   Clear
6:35 AM 51.8 °F 51.8 °F 100% 30.05 in 10.0 mi East 3.5 mph - N/A   Clear
6:55 AM 51.8 °F 51.8 °F 100% 30.05 in 7.0 mi East 4.6 mph - N/A   Clear
7:15 AM 53.6 °F 51.8 °F 94% 30.05 in 10.0 mi Calm Calm - N/A   Clear
7:35 AM 53.6 °F 51.8 °F 94% 30.06 in 10.0 mi Calm Calm - N/A   Clear
7:55 AM 53.6 °F 51.8 °F 94% 30.06 in 7.0 mi Calm Calm - N/A   Clear
8:15 AM 53.6 °F 51.8 °F 94% 30.06 in 5.0 mi NNE 3.5 mph - N/A   Clear
8:35 AM 55.4 °F 53.6 °F 94% 30.06 in 10.0 mi NNE 4.6 mph - N/A   Clear
8:55 AM 60.8 °F 53.6 °F 77% 30.06 in 10.0 mi NE 6.9 mph - N/A   Clear
9:15 AM 62.6 °F 53.6 °F 72% 30.06 in 7.0 mi NE 6.9 mph - N/A   Clear
9:35 AM 62.6 °F 51.8 °F 68% 30.06 in 10.0 mi North 4.6 mph - N/A   Clear
9:55 AM 62.6 °F 53.6 °F 72% 30.05 in 5.0 mi NW 6.9 mph - N/A   Haze
10:15 AM 60.8 °F 51.8 °F 72% 30.06 in 7.0 mi NNW 6.9 mph - N/A   Clear
10:35 AM 60.8 °F 51.8 °F 72% 30.06 in 10.0 mi NNW 8.1 mph - N/A   Clear
10:55 AM 60.8 °F 51.8 °F 72% 30.06 in 7.0 mi NNW 6.9 mph - N/A   Clear
11:15 AM 60.8 °F 51.8 °F 72% 30.06 in 10.0 mi North 6.9 mph - N/A   Clear
11:35 AM 62.6 °F 51.8 °F 68% 30.06 in 7.0 mi NNW 6.9 mph - N/A   Clear
11:55 AM 62.6 °F 51.8 °F 68% 30.06 in 10.0 mi NNW 8.1 mph - N/A   Clear
12:15 PM 64.4 °F 51.8 °F 64% 30.05 in 10.0 mi NNW 8.1 mph - N/A   Clear
12:35 PM 64.4 °F 51.8 °F 64% 30.05 in 10.0 mi NNW 9.2 mph - N/A   Clear
12:55 PM 64.4 °F 51.8 °F 64% 30.05 in 10.0 mi NNW 9.2 mph - N/A   Clear
1:15 PM 66.2 °F 51.8 °F 60% 30.04 in 10.0 mi NW 11.5 mph - N/A   Clear
1:35 PM 64.4 °F 51.8 °F 64% 30.04 in 10.0 mi NNW 11.5 mph 17.3 mph N/A   Clear
1:55 PM 64.4 °F 51.8 °F 64% 30.04 in 10.0 mi NNW 11.5 mph - N/A   Clear
2:15 PM 64.4 °F 51.8 °F 64% 30.04 in 10.0 mi NNW 13.8 mph - N/A   Clear
2:35 PM 66.2 °F 51.8 °F 60% 30.04 in 10.0 mi NNW 12.7 mph - N/A   Clear
2:55 PM 66.2 °F 51.8 °F 60% 30.04 in 10.0 mi NNW 11.5 mph - N/A   Clear
3:15 PM 64.4 °F 53.6 °F 68% 30.04 in 7.0 mi NNW 12.7 mph 17.3 mph N/A   Clear
3:35 PM 64.4 °F 53.6 °F 68% 30.04 in 7.0 mi NNW 11.5 mph - N/A   Clear
3:55 PM 64.4 °F 53.6 °F 68% 30.04 in 7.0 mi NNW 12.7 mph - N/A   Clear
4:15 PM 64.4 °F 53.6 °F 68% 30.04 in 10.0 mi NNW 11.5 mph 17.3 mph N/A   Clear
4:35 PM 62.6 °F 53.6 °F 72% 30.04 in 10.0 mi NNW 11.5 mph - N/A   Clear
4:55 PM 62.6 °F 53.6 °F 72% 30.03 in 10.0 mi NNW 12.7 mph - N/A   Clear
5:15 PM 62.6 °F 53.6 °F 72% 30.04 in 10.0 mi NNW 12.7 mph - N/A   Clear
5:35 PM 64.4 °F 53.6 °F 68% 30.04 in 10.0 mi NNW 11.5 mph - N/A   Clear
5:55 PM 62.6 °F 53.6 °F 72% 30.04 in 10.0 mi NNW 10.4 mph - N/A   Clear
6:15 PM 60.8 °F 53.6 °F 77% 30.04 in 10.0 mi NNW 9.2 mph - N/A   Clear
6:35 PM 60.8 °F 53.6 °F 77% 30.04 in 10.0 mi NNW 8.1 mph - N/A   Clear
6:55 PM 59.0 °F 53.6 °F 82% 30.05 in 10.0 mi NNW 4.6 mph - N/A   Clear
7:35 PM 59.0 °F 53.6 °F 82% 30.05 in 10.0 mi NW 3.5 mph - N/A   Clear
7:55 PM 59.0 °F 53.6 °F 82% 30.05 in 5.0 mi Calm Calm - N/A   Clear
8:15 PM 59.0 °F 53.6 °F 82% 30.05 in 5.0 mi Calm Calm - N/A   Clear
8:35 PM 57.2 °F 53.6 °F 88% 30.05 in 5.0 mi Calm Calm - N/A   Clear
8:55 PM 57.2 °F 53.6 °F 88% 30.05 in 7.0 mi Calm Calm - N/A   Clear
9:15 PM 57.2 °F 53.6 °F 88% 30.06 in 7.0 mi Calm Calm - N/A   Clear
9:35 PM 57.2 °F 53.6 °F 88% 30.07 in 7.0 mi SSW 4.6 mph - N/A   Scattered Clouds
9:55 PM 55.4 °F 53.6 °F 94% 30.08 in 7.0 mi SSW 4.6 mph - N/A   Scattered Clouds
10:15 PM 55.4 °F 53.6 °F 94% 30.08 in 7.0 mi SSW 3.5 mph - N/A   Mostly Cloudy
10:35 PM 55.4 °F 53.6 °F 94% 30.08 in 7.0 mi South 4.6 mph - N/A   Overcast
10:55 PM 55.4 °F 53.6 °F 94% 30.08 in 7.0 mi South 6.9 mph - N/A   Mostly Cloudy
11:15 PM 55.4 °F 53.6 °F 94% 30.08 in 7.0 mi SSW 5.8 mph - N/A   Mostly Cloudy
11:35 PM 55.4 °F 53.6 °F 94% 30.08 in 7.0 mi South 5.8 mph - N/A   Mostly Cloudy
11:55 PM 55.4 °F 53.6 °F 94% 30.08 in 10.0 mi South 5.8 mph - N/A   Scattered Clouds